Fort Sill, OK

8:56 PM CST on January 23, 2018 (GMT -0600)
Post Army Air Field

Weather History for KFSI - November, 2012

Change the Weather History Date:

Friday, November 16, 2012

  Actual Average Record
Temperature  
Mean Temperature 52 °F -  
Max Temperature 61 °F 60 °F 84 °F (1952)
Min Temperature 43 °F 35 °F 17 °F (1959)
Degree Days  
Heating Degree Days 13    
Growing Degree Days 2 (Base 50)    
Moisture  
Dew Point 33 °F    
Average Humidity 52    
Maximum Humidity 76    
Minimum Humidity 25    
Precipitation  
Precipitation 0.00 in - - ()
Sea Level Pressure  
Sea Level Pressure 30.36 in    
Wind  
Wind Speed 2 mph (SE)    
Max Wind Speed 7 mph    
Max Gust Speed -    
Visibility 10 miles    
Events      
Averages and records for this station are not official NWS values.
T = Trace of Precipitation, MM = Missing Value Source: NWS Daily Summary

Daily Weather History Graph

Daily Weather History Graph

Search for Another Location

Airport or City:

Trip Planner

Search our weather history database for the weather conditions in past years. The results will help you decide how hot, cold, wet, or windy it might be!

Date:

Astronomy

Nov. 16, 2012 Rise Set
Actual Time 7:08 AM CST 5:27 PM CST
Civil Twilight 6:41 AM CST 5:54 PM CST
Nautical Twilight 6:11 AM CST 6:25 PM CST
Astronomical Twilight 5:41 AM CST 6:55 PM CST
Moon 10:02 AM CST (11/16) 8:30 PM CST (11/16)
Length of Visible Light 11h 12m
Length of Day
10h 18m
Waxing Crescent, 12% of the Moon is Illuminated
Nov 16
Waxing Crescent
Nov 20
First Quarter
Nov 28
Full
Dec 6
Last Quarter
Dec 13
New

Hourly Weather History & Observations

Time (CST) Temp. Windchill Dew Point Humidity Pressure Visibility Wind Dir Wind Speed Gust Speed Precip Events Conditions
12:55 AM 48.7 °F - 33.1 °F 55% 30.35 in 10.0 mi Calm Calm - N/A   Mostly Cloudy
1:55 AM 48.0 °F - 34.3 °F 59% 30.35 in 10.0 mi Calm Calm - N/A   Overcast
2:55 AM 45.5 °F - 36.7 °F 71% 30.35 in 10.0 mi Calm Calm - N/A   Overcast
3:55 AM 44.8 °F - 34.9 °F 68% 30.35 in 10.0 mi Calm Calm - N/A   Mostly Cloudy
4:55 AM 43.5 °F - 36.5 °F 76% 30.36 in 10.0 mi Calm Calm - N/A   Overcast
5:55 AM 44.1 °F 41.5 °F 36.0 °F 73% 30.37 in 10.0 mi NNE 4.6 mph - N/A   Overcast
6:55 AM 43.9 °F 40.5 °F 35.8 °F 73% 30.39 in 10.0 mi North 5.8 mph - N/A   Overcast
7:55 AM 45.0 °F 42.6 °F 35.4 °F 69% 30.40 in 10.0 mi NNE 4.6 mph - N/A   Overcast
8:55 AM 46.8 °F - 35.2 °F 64% 30.41 in 10.0 mi ENE 4.6 mph - N/A   Overcast
9:55 AM 50.9 °F - 34.3 °F 53% 30.41 in 10.0 mi ESE 4.6 mph - N/A   Overcast
10:55 AM 55.0 °F - 31.8 °F 41% 30.41 in 10.0 mi SSE 3.5 mph - N/A   Partly Cloudy
11:55 AM 58.6 °F - 32.2 °F 37% 30.40 in 10.0 mi SSE 5.8 mph - N/A   Overcast
12:55 PM 59.9 °F - 27.9 °F 30% 30.37 in 10.0 mi SSE 5.8 mph - N/A   Clear
1:55 PM 61.5 °F - 24.8 °F 25% 30.34 in 10.0 mi Variable 4.6 mph - N/A   Clear
2:55 PM 61.7 °F - 28.4 °F 28% 30.32 in 10.0 mi South 5.8 mph - N/A   Clear
3:55 PM 61.7 °F - 29.1 °F 29% 30.32 in 10.0 mi South 4.6 mph - N/A   Clear
4:55 PM 59.7 °F - 31.6 °F 35% 30.32 in 10.0 mi SE 6.9 mph - N/A   Clear
5:55 PM 55.0 °F - 31.6 °F 41% 30.32 in 10.0 mi Calm Calm - N/A   Clear
6:55 PM 53.4 °F - 31.5 °F 43% 30.33 in 10.0 mi Calm Calm - N/A   Clear
7:55 PM 51.4 °F - 32.5 °F 49% 30.33 in 10.0 mi Calm Calm - N/A   Clear
8:55 PM 47.8 °F - 33.4 °F 57% 30.34 in 10.0 mi Calm Calm - N/A   Clear
9:55 PM 47.5 °F - 32.4 °F 56% 30.34 in 10.0 mi SE 3.5 mph - N/A   Clear
10:55 PM 45.7 °F 44.4 °F 32.2 °F 59% 30.33 in 10.0 mi SE 3.5 mph - N/A   Clear
11:55 PM 45.3 °F 44.0 °F 31.5 °F 58% 30.33 in 10.0 mi SSE 3.5 mph - N/A   Clear